Location: Bonningues
(50.7927°N, 2.0150°E)
Time: 23:48:10
(UTC+00:00)

Cosmos 2322 Rocket - Pass Details

Date: 08 August 2020
Orbit: 831 x 852 km, 71.0° (Epoch: 23 September)

Event Time Altitude Azimuth Distance (km) Brightness Sun altitude
Rises 23:39:20 0° 321° (NW) 3,420 6.2 -23.3°
Reaches altitude 10° 23:42:18 10° 307° (NW) 2,483 5.1 -23.3°
Maximum altitude 23:46:31 22° 259° (W) 1,789 3.8 -23.4°
Enters shadow 23:47:26 21° 245° (WSW) 1,827 3.7 -23.4°
